Clinton, OK

9:02 AM CST on January 17, 2017 (GMT -0600)
Clinton Municipal

Weather History for KCLK - May, 2013

Change the Weather History Date:

Tuesday, May 14, 2013

  Actual Average (KCSM) Record (KCSM)
Temperature  
Mean Temperature 71 °F -  
Max Temperature 87 °F 79 °F 90 °F (2013)
Min Temperature 55 °F 55 °F 42 °F (2011)
Cooling Degree Days 6    
Growing Degree Days 21 (Base 50)    
Moisture  
Dew Point 41 °F    
Average Humidity 33    
Maximum Humidity 58    
Minimum Humidity 14    
Precipitation  
Precipitation 0.00 in - - ()
Sea Level Pressure  
Sea Level Pressure 29.99 in    
Wind  
Wind Speed 10 mph (South)    
Max Wind Speed 24 mph    
Max Gust Speed 34 mph    
Visibility 10 miles    
Events      
Averages and records for this station are not official NWS values.
T = Trace of Precipitation, MM = Missing Value Source: NWS Daily Summary

Daily Weather History Graph

Daily Weather History Graph

Search for Another Location

Airport or City:

Trip Planner

Search our weather history database for the weather conditions in past years. The results will help you decide how hot, cold, wet, or windy it might be!

Date:

Astronomy

May. 14, 2013 Rise Set
Actual Time 6:31 AM CDT 8:33 PM CDT
Civil Twilight 6:03 AM CDT 9:01 PM CDT
Nautical Twilight 5:28 AM CDT 9:35 PM CDT
Astronomical Twilight 4:52 AM CDT 10:12 PM CDT
Moon 10:12 AM CDT (5/14) No Moon Set
Length of Visible Light 14h 58m
Length of Day
14h 01m
Waxing Crescent, 19% of the Moon is Illuminated
May 14
Waxing Crescent
May 17
First Quarter
May 24
Full
May 31
Last Quarter
Jun 8
New

Hourly Weather History & Observations

Time (CDT) Temp. Dew Point Humidity Pressure Visibility Wind Dir Wind Speed Gust Speed Precip Events Conditions
12:15 AM 64.4 °F 37.4 °F 37% 30.06 in 10.0 mi South 9.2 mph - N/A   Clear
12:35 AM 64.4 °F 37.4 °F 37% 30.06 in 10.0 mi SSE 8.1 mph - N/A   Clear
12:55 AM 62.6 °F 37.4 °F 39% 30.06 in 10.0 mi South 8.1 mph - N/A   Clear
1:15 AM 62.6 °F 39.2 °F 42% 30.05 in 10.0 mi South 8.1 mph - N/A   Clear
1:35 AM 60.8 °F 39.2 °F 45% 30.06 in 10.0 mi South 6.9 mph - N/A   Clear
1:55 AM 60.8 °F 39.2 °F 45% 30.05 in 10.0 mi South 8.1 mph - N/A   Clear
2:15 AM 60.8 °F 37.4 °F 42% 30.05 in 10.0 mi South 6.9 mph - N/A   Clear
2:35 AM 60.8 °F 37.4 °F 42% 30.05 in 10.0 mi South 6.9 mph - N/A   Clear
2:55 AM 60.8 °F 37.4 °F 42% 30.05 in 10.0 mi South 6.9 mph - N/A   Clear
3:15 AM 62.6 °F 35.6 °F 37% 30.05 in 10.0 mi South 6.9 mph - N/A   Clear
3:35 AM 62.6 °F 37.4 °F 39% 30.05 in 10.0 mi South 6.9 mph - N/A   Clear
3:55 AM 62.6 °F 35.6 °F 37% 30.05 in 10.0 mi South 5.8 mph - N/A   Clear
4:15 AM 60.8 °F 37.4 °F 42% 30.05 in 10.0 mi South 6.9 mph - N/A   Clear
4:35 AM 62.6 °F 37.4 °F 39% 30.05 in 10.0 mi South 5.8 mph - N/A   Clear
4:55 AM 60.8 °F 37.4 °F 42% 30.05 in 10.0 mi South 6.9 mph - N/A   Clear
5:15 AM 60.8 °F 37.4 °F 42% 30.04 in 10.0 mi South 8.1 mph - N/A   Clear
5:35 AM 59.0 °F 39.2 °F 48% 30.05 in 10.0 mi South 6.9 mph - N/A   Clear
5:55 AM 59.0 °F 39.2 °F 48% 30.05 in 10.0 mi South 8.1 mph - N/A   Clear
6:15 AM 57.2 °F 41.0 °F 55% 30.05 in 10.0 mi South 8.1 mph - N/A   Clear
6:35 AM 55.4 °F 41.0 °F 58% 30.05 in 10.0 mi South 4.6 mph - N/A   Clear
6:55 AM 59.0 °F 39.2 °F 48% 30.05 in 10.0 mi Calm Calm - N/A   Clear
7:15 AM 60.8 °F 41.0 °F 48% 30.06 in 10.0 mi Calm Calm - N/A   Clear
7:35 AM 60.8 °F 41.0 °F 48% 30.07 in 10.0 mi Calm Calm - N/A   Clear
7:55 AM 62.6 °F 42.8 °F 48% 30.07 in 10.0 mi South 3.5 mph - N/A   Clear
8:15 AM 64.4 °F 42.8 °F 45% 30.08 in 10.0 mi South 3.5 mph - N/A   Clear
8:35 AM 68.0 °F 41.0 °F 37% 30.08 in 10.0 mi SSW 9.2 mph - N/A   Clear
8:55 AM 69.8 °F 41.0 °F 35% 30.07 in 10.0 mi SW 8.1 mph - N/A   Clear
9:15 AM 71.6 °F 41.0 °F 33% 30.07 in 10.0 mi SW 5.8 mph - N/A   Clear
9:35 AM 73.4 °F 41.0 °F 31% 30.07 in 10.0 mi WSW 9.2 mph - N/A   Clear
9:55 AM 75.2 °F 42.8 °F 31% 30.07 in 10.0 mi SW 9.2 mph - N/A   Clear
10:15 AM 77.0 °F 42.8 °F 29% 30.06 in 10.0 mi SW 11.5 mph - N/A   Clear
10:35 AM 78.8 °F 42.8 °F 28% 30.06 in 10.0 mi WSW 12.7 mph - N/A   Clear
10:55 AM 78.8 °F 42.8 °F 28% 30.05 in 10.0 mi SSW 12.7 mph 17.3 mph N/A   Clear
11:15 AM 80.6 °F 41.0 °F 24% 30.05 in 10.0 mi SW 13.8 mph 21.9 mph N/A   Clear
11:35 AM 82.4 °F 41.0 °F 23% 30.04 in 10.0 mi SW 15.0 mph 24.2 mph N/A   Clear
11:55 AM 82.4 °F 37.4 °F 20% 30.04 in 10.0 mi SW 18.4 mph 25.3 mph N/A   Clear
12:15 PM 84.2 °F 37.4 °F 19% 30.04 in 10.0 mi SSW 16.1 mph 23.0 mph N/A   Clear
12:35 PM 86.0 °F 32.0 °F 14% 30.03 in 10.0 mi South 23.0 mph 28.8 mph N/A   Clear
12:55 PM 86.0 °F 35.6 °F 17% 30.02 in 10.0 mi SSW 18.4 mph 26.5 mph N/A   Clear
1:15 PM 86.0 °F 39.2 °F 19% 30.01 in 10.0 mi SW 17.3 mph 28.8 mph N/A   Clear
1:35 PM 86.0 °F 41.0 °F 20% 30.00 in 10.0 mi SSW 19.6 mph 29.9 mph N/A   Clear
1:55 PM 86.0 °F 41.0 °F 20% 29.99 in 10.0 mi SW 19.6 mph 28.8 mph N/A   Clear
2:15 PM 86.0 °F 41.0 °F 20% 29.99 in 10.0 mi SSW 17.3 mph 27.6 mph N/A   Clear
2:35 PM 87.8 °F 39.2 °F 18% 29.98 in 10.0 mi SSW 19.6 mph 29.9 mph N/A   Clear
2:55 PM 87.8 °F 41.0 °F 19% 29.97 in 10.0 mi South 17.3 mph 26.5 mph N/A   Clear
3:15 PM 87.8 °F 39.2 °F 18% 29.96 in 10.0 mi SSW 20.7 mph 34.5 mph N/A   Clear
3:35 PM 87.8 °F 37.4 °F 17% 29.95 in 10.0 mi SSW 16.1 mph 31.1 mph N/A   Clear
3:55 PM 87.8 °F 37.4 °F 17% 29.95 in 10.0 mi South 23.0 mph 29.9 mph N/A   Clear
4:15 PM 87.8 °F 35.6 °F 16% 29.94 in 10.0 mi South 24.2 mph 33.4 mph N/A   Clear
4:35 PM 87.8 °F 35.6 °F 16% 29.93 in 10.0 mi SSW 18.4 mph 29.9 mph N/A   Clear
4:55 PM 87.8 °F 37.4 °F 17% 29.92 in 10.0 mi South 20.7 mph 28.8 mph N/A   Clear
5:15 PM 87.8 °F 37.4 °F 17% 29.91 in 10.0 mi South 23.0 mph 26.5 mph N/A   Clear
5:35 PM 87.8 °F 35.6 °F 16% 29.91 in 10.0 mi SSW 17.3 mph 25.3 mph N/A   Clear
5:55 PM 87.8 °F 37.4 °F 17% 29.90 in 10.0 mi South 19.6 mph 25.3 mph N/A   Clear
6:15 PM 87.8 °F 37.4 °F 17% 29.90 in 10.0 mi South 19.6 mph 24.2 mph N/A   Clear
6:35 PM 86.0 °F 41.0 °F 20% 29.89 in 10.0 mi South 13.8 mph - N/A   Clear
6:55 PM 86.0 °F 39.2 °F 19% 29.88 in 10.0 mi South 18.4 mph 23.0 mph N/A   Clear
7:15 PM 84.2 °F 42.8 °F 23% 29.87 in 10.0 mi South 13.8 mph 20.7 mph N/A   Clear
7:35 PM 82.4 °F 42.8 °F 25% 29.87 in 10.0 mi South 16.1 mph 23.0 mph N/A   Clear
7:55 PM 82.4 °F 42.8 °F 25% 29.87 in 10.0 mi South 13.8 mph - N/A   Clear
8:15 PM 78.8 °F 44.6 °F 30% 29.88 in 10.0 mi South 11.5 mph - N/A   Clear
8:35 PM 78.8 °F 46.4 °F 32% 29.88 in 10.0 mi SSE 11.5 mph - N/A   Clear
8:55 PM 77.0 °F 46.4 °F 34% 29.88 in 10.0 mi SSE 10.4 mph - N/A   Clear
9:15 PM 75.2 °F 48.2 °F 38% 29.88 in 10.0 mi SSE 10.4 mph - N/A   Clear
9:35 PM 73.4 °F 50.0 °F 44% 29.89 in 10.0 mi SSE 8.1 mph - N/A   Clear
9:55 PM 73.4 °F 50.0 °F 44% 29.89 in 10.0 mi SSE 9.2 mph - N/A   Clear
10:15 PM 71.6 °F 50.0 °F 46% 29.90 in 10.0 mi SSE 12.7 mph - N/A   Clear
10:35 PM 71.6 °F 50.0 °F 46% 29.91 in 10.0 mi SSE 12.7 mph - N/A   Clear
10:55 PM 71.6 °F 50.0 °F 46% 29.91 in 10.0 mi SSE 12.7 mph - N/A   Clear
11:15 PM 69.8 °F 50.0 °F 49% 29.91 in 10.0 mi SSE 10.4 mph - N/A   Clear
11:35 PM 69.8 °F 50.0 °F 49% 29.91 in 10.0 mi SSE 10.4 mph - N/A   Clear
11:55 PM 69.8 °F 50.0 °F 49% 29.92 in 10.0 mi SSE 10.4 mph - N/A   Clear